Location: Kitchener
(43.4500°N, 80.5000°W)
Time: 07:45:17
(UTC-04:00)

ATLAS 5 CENTAUR R/B - Visible Passes

Search period start: 26 June 2016 00:00
Search period end: 06 July 2016 00:00
Orbit: 667 x 993 km, 63.4° (Epoch: 20 June)

Date Brightness Start Highest point End Pass type
(mag) Time Alt. Az. Time Alt. Az. Time Alt. Az.
26 Jun 5.5 02:12:29 10° N 02:15:04 13° NNE 02:17:44 10° NE visible
26 Jun 4.0 03:56:01 10° NNW 04:01:27 37° NE 04:07:15 10° ESE visible
26 Jun 4.8 22:17:50 10° W 22:21:40 21° NNW 22:25:46 10° NNE visible
27 Jun 5.4 01:53:40 10° N 01:56:07 13° NNE 01:58:37 10° NE visible
27 Jun 4.0 03:37:10 10° NNW 03:42:33 36° NE 03:48:16 10° ESE visible
27 Jun 4.8 21:58:50 10° W 22:02:45 22° NNW 22:06:56 10° NNE visible
28 Jun 5.4 01:34:51 10° N 01:37:10 12° NNE 01:39:31 10° NE visible
28 Jun 4.1 03:18:19 10° NNW 03:23:38 34° NE 03:29:18 10° ESE visible
28 Jun 2.5 05:02:48 10° NW 05:08:40 56° WSW 05:14:53 10° SSE visible
28 Jun 4.8 21:39:51 10° W 21:43:50 23° NW 21:48:05 10° NNE visible
29 Jun 5.3 01:16:02 10° N 01:18:12 12° NNE 01:20:25 10° NE visible
29 Jun 4.1 02:59:28 10° NNW 03:04:44 33° NE 03:10:19 10° ESE visible
29 Jun 2.5 04:43:54 10° NW 04:49:48 59° WSW 04:56:04 10° SSE visible
30 Jun 5.3 00:57:14 10° N 00:59:14 12° NNE 01:01:18 10° NE visible
30 Jun 4.1 02:40:38 10° NNW 02:45:49 32° NE 02:51:20 10° ESE visible
30 Jun 2.4 04:25:01 10° NW 04:30:56 62° WSW 04:37:14 10° SSE visible
30 Jun 5.5 22:52:30 10° NNW 22:52:48 10° N 22:53:05 10° N visible
01 Jul 5.2 00:38:26 10° N 00:40:17 11° NNE 00:42:10 10° NE visible
01 Jul 4.1 02:21:47 10° NNW 02:26:55 30° NE 02:32:21 10° E visible
01 Jul 2.4 04:06:07 10° NW 04:12:04 65° WSW 04:18:23 10° SSE visible
01 Jul 5.4 22:33:08 10° NNW 22:33:50 10° NNW 22:34:32 10° N visible
02 Jul 5.2 00:19:38 10° N 00:21:19 11° NNE 00:23:02 10° NNE visible
02 Jul 4.2 02:02:57 10° NNW 02:08:00 29° NE 02:13:21 10° E visible
02 Jul 2.3 03:47:15 10° NW 03:53:11 69° WSW 03:59:33 10° SSE visible
02 Jul 5.3 22:13:55 10° NNW 22:14:52 10° NNW 22:15:50 10° N visible
03 Jul 5.2 00:00:51 10° N 00:02:21 11° NNE 00:03:54 10° NNE visible
03 Jul 4.2 01:44:06 10° NNW 01:49:05 28° NE 01:54:21 10° E visible
03 Jul 2.3 03:28:22 10° NW 03:34:20 73° WSW 03:40:42 10° SSE visible
03 Jul 5.2 21:54:45 10° NNW 21:55:54 11° NNW 21:57:05 10° N visible
03 Jul 5.2 23:42:05 10° N 23:43:24 11° NNE 23:44:44 10° NNE visible
04 Jul 4.2 01:25:15 10° NNW 01:30:10 27° NE 01:35:22 10° E visible
04 Jul 2.3 03:09:28 10° NW 03:15:27 76° SW 03:21:51 10° SSE visible
04 Jul 4.0 04:56:32 10° W 04:59:25 14° WSW 05:02:23 10° SW visible
04 Jul 5.1 23:23:19 10° N 23:24:26 11° NNE 23:25:34 10° NNE visible
05 Jul 4.2 01:06:25 10° NNW 01:11:15 26° NE 01:16:22 10° E visible
05 Jul 2.3 02:50:36 10° NW 02:56:35 80° SW 03:01:22 19° SSE visible
05 Jul 4.0 04:37:24 10° WNW 04:40:36 15° WSW 04:42:47 12° SW visible
05 Jul 5.1 23:04:36 10° N 23:05:28 10° NNE 23:06:21 10° NNE visible
